Zurück zum Katalog

COSMOS 839 DEB *

AktivUNKNOWN
NORAD 18689·DEBRIS·🇷🇺 Russia

Gestartet Jul 8, 1976 von Plesetsk Cosmodrome

Loading…

Nächste Überflüge (nächste 24 Stunden)

TLE

AktuellSource: Space-Track

Epoche: Sep 14, 2026, 01:11 UTC

1 18689U 76067BR  26257.04982538  .00000122  00000-0  11944-2 0  9995
2 18689  65.8163 125.1717 0932474 135.5061  10.5033 11.55790058401139

Verfolge COSMOS 839 DEB * in Echtzeit mit AllMySat

Download on the App Store